When you browse on this site, cookies collect data to enhance your experience and personalize the content and advertising you see.
Visit our Privacy Policy to learn more. By continuing to use the site, you agree to this use of cookies and data.
  • In Deutschland
  • Länderverzeichnis
  • Für 7 Tage
  • Wassertemperatur
  • Wetterkarte
  • Widgets
  • user-avatar
    Anmelden

    Stündliche Wetter Monastyrka

    Heute, 16 Oktober, Mittwoch

    Zeit Temperatur Niederschläge Wind Luftdruck Luftfeuchtigkeit
    00:00 +2°C° 0 mm 3 m/S 739 mmHg 90%
    01:00 +2°C° 0 mm 3 m/S 740 mmHg 92%
    02:00 +1°C° 0 mm 3 m/S 740 mmHg 91%
    03:00 0°C° 0 mm 4 m/S 740 mmHg 90%
    04:00 0°C° 0 mm 4 m/S 740 mmHg 89%
    05:00 0°C° 0 mm 4 m/S 741 mmHg 88%
    06:00 -1°C° 0 mm 5 m/S 741 mmHg 87%
    07:00 -1°C° 0 mm 5 m/S 741 mmHg 87%
    08:00 0°C° 0 mm 5 m/S 742 mmHg 87%
    09:00 -1°C° 0 mm 6 m/S 742 mmHg 87%
    10:00 +1°C° 0 mm 6 m/S 743 mmHg 87%
    11:00 +1°C° 0 mm 6 m/S 743 mmHg 87%
    12:00 +1°C° 0 mm 6 m/S 743 mmHg 87%
    13:00 +1°C° 0 mm 6 m/S 744 mmHg 87%
    14:00 +1°C° 0.1 mm 6 m/S 744 mmHg 85%
    15:00 +1°C° 0.1 mm 5 m/S 745 mmHg 83%
    16:00 +1°C° 0.1 mm 5 m/S 746 mmHg 81%
    17:00 +1°C° 0 mm 5 m/S 746 mmHg 84%
    18:00 0°C° 0 mm 5 m/S 747 mmHg 86%
    19:00 0°C° 0 mm 5 m/S 747 mmHg 88%
    20:00 0°C° 0 mm 5 m/S 748 mmHg 85%
    21:00 0°C° 0 mm 5 m/S 748 mmHg 82%
    22:00 -2°C° 0 mm 6 m/S 749 mmHg 79%
    23:00 -2°C° 0 mm 6 m/S 749 mmHg 81%

    Morgen, 17 Oktober, Donnerstag

    Zeit Temperatur Niederschläge Wind Luftdruck Luftfeuchtigkeit
    00:00 -2°C° 0 mm 5 m/S 749 mmHg 83%
    01:00 -2°C° 0 mm 5 m/S 749 mmHg 85%
    02:00 -2°C° 0 mm 5 m/S 750 mmHg 84%
    03:00 -2°C° 0 mm 5 m/S 751 mmHg 83%
    04:00 -2°C° 0 mm 5 m/S 751 mmHg 83%
    05:00 -2°C° 0 mm 5 m/S 751 mmHg 82%
    06:00 -2°C° 0 mm 5 m/S 752 mmHg 81%
    07:00 -2°C° 0 mm 5 m/S 752 mmHg 80%
    08:00 -1°C° 0 mm 5 m/S 752 mmHg 77%
    09:00 -1°C° 0 mm 5 m/S 752 mmHg 73%
    10:00 0°C° 0 mm 5 m/S 753 mmHg 69%
    11:00 0°C° 0 mm 5 m/S 753 mmHg 68%
    12:00 0°C° 0 mm 5 m/S 753 mmHg 67%
    13:00 0°C° 0 mm 5 m/S 753 mmHg 66%
    14:00 0°C° 0 mm 4 m/S 753 mmHg 67%
    15:00 0°C° 0 mm 4 m/S 753 mmHg 68%
    16:00 +1°C° 0 mm 3 m/S 753 mmHg 69%
    17:00 0°C° 0 mm 3 m/S 753 mmHg 71%
    18:00 +1°C° 0 mm 2 m/S 752 mmHg 73%
    19:00 +1°C° 0 mm 2 m/S 752 mmHg 75%
    20:00 +1°C° 0.1 mm 2 m/S 752 mmHg 82%
    21:00 -1°C° 0.1 mm 2 m/S 752 mmHg 89%
    22:00 -1°C° 0.1 mm 2 m/S 751 mmHg 96%
    23:00 -1°C° 0.5 mm 3 m/S 751 mmHg 97%

    übermorgen, 18 Oktober, Freitag

    Zeit Temperatur Niederschläge Wind Luftdruck Luftfeuchtigkeit
    00:00 -1°C° 0.5 mm 3 m/S 750 mmHg 97%
    01:00 -1°C° 0.5 mm 3 m/S 749 mmHg 97%
    02:00 -1°C° 0.5 mm 3 m/S 749 mmHg 97%
    03:00 -1°C° 0.5 mm 3 m/S 748 mmHg 97%
    04:00 -1°C° 0.5 mm 3 m/S 748 mmHg 98%
    05:00 -1°C° 0.2 mm 3 m/S 747 mmHg 98%
    06:00 -1°C° 0.2 mm 3 m/S 747 mmHg 98%
    07:00 -1°C° 0.2 mm 3 m/S 746 mmHg 98%
    08:00 0°C° 0.3 mm 3 m/S 746 mmHg 98%
    09:00 0°C° 0.3 mm 3 m/S 745 mmHg 98%
    10:00 0°C° 0.3 mm 3 m/S 745 mmHg 98%
    11:00 +1°C° 0.6 mm 2 m/S 745 mmHg 99%
    12:00 +2°C° 0.6 mm 2 m/S 745 mmHg 99%
    13:00 +2°C° 0.6 mm 2 m/S 745 mmHg 99%
    14:00 0°C° 0.2 mm 3 m/S 745 mmHg 98%
    15:00 -1°C° 0.2 mm 4 m/S 745 mmHg 98%
    16:00 -1°C° 0.2 mm 5 m/S 746 mmHg 97%
    17:00 -1°C° 0.1 mm 5 m/S 746 mmHg 96%
    18:00 -2°C° 0.1 mm 5 m/S 747 mmHg 96%
    19:00 -2°C° 0.1 mm 5 m/S 748 mmHg 95%
    20:00 -2°C° 0.1 mm 5 m/S 749 mmHg 94%
    21:00 -2°C° 0.1 mm 5 m/S 750 mmHg 92%
    22:00 -3°C° 0.1 mm 6 m/S 750 mmHg 91%
    23:00 -4°C° 0 mm 5 m/S 751 mmHg 89%

    19 Oktober, Samstag

    Zeit Temperatur Niederschläge Wind Luftdruck Luftfeuchtigkeit
    00:00 -4°C° 0 mm 5 m/S 752 mmHg 87%
    01:00 -5°C° 0 mm 5 m/S 752 mmHg 86%
    02:00 -5°C° 0 mm 5 m/S 753 mmHg 85%
    03:00 -5°C° 0 mm 5 m/S 754 mmHg 84%
    04:00 -6°C° 0 mm 5 m/S 754 mmHg 84%
    05:00 -5°C° 0 mm 4 m/S 755 mmHg 86%
    06:00 -7°C° 0 mm 4 m/S 755 mmHg 89%
    07:00 -7°C° 0 mm 3 m/S 755 mmHg 91%
    08:00 -6°C° 0 mm 3 m/S 756 mmHg 88%
    09:00 -5°C° 0 mm 3 m/S 756 mmHg 84%
    10:00 -4°C° 0 mm 3 m/S 757 mmHg 81%
    11:00 -4°C° 0 mm 3 m/S 757 mmHg 78%
    12:00 -2°C° 0 mm 3 m/S 757 mmHg 76%
    13:00 -2°C° 0 mm 2 m/S 757 mmHg 73%
    14:00 -2°C° 0 mm 2 m/S 758 mmHg 75%
    15:00 -1°C° 0 mm 1 m/S 758 mmHg 78%
    16:00 -1°C° 0 mm 1 m/S 758 mmHg 80%
    17:00 -1°C° 0 mm 1 m/S 759 mmHg 81%
    18:00 -3°C° 0 mm 0 m/S 759 mmHg 83%
    19:00 -3°C° 0 mm 0 m/S 759 mmHg 84%
    20:00 -3°C° 0 mm 0 m/S 760 mmHg 84%
    21:00 -4°C° 0 mm 0 m/S 760 mmHg 84%
    22:00 -4°C° 0 mm 0 m/S 760 mmHg 84%
    23:00 -3°C° 0 mm 1 m/S 760 mmHg 85%

    20 Oktober, Sonntag

    Zeit Temperatur Niederschläge Wind Luftdruck Luftfeuchtigkeit
    00:00 -3°C° 0 mm 1 m/S 760 mmHg 86%
    01:00 -3°C° 0 mm 1 m/S 760 mmHg 86%
    02:00 -3°C° 0 mm 1 m/S 760 mmHg 87%
    03:00 -5°C° 0 mm 2 m/S 760 mmHg 88%
    04:00 -5°C° 0 mm 2 m/S 760 mmHg 88%
    05:00 -5°C° 0 mm 2 m/S 760 mmHg 89%
    06:00 -5°C° 0 mm 2 m/S 760 mmHg 89%
    07:00 -5°C° 0 mm 2 m/S 760 mmHg 89%
    08:00 -5°C° 0 mm 3 m/S 760 mmHg 84%
    09:00 -4°C° 0 mm 4 m/S 760 mmHg 79%
    10:00 -3°C° 0 mm 4 m/S 760 mmHg 74%
    11:00 -2°C° 0 mm 5 m/S 760 mmHg 73%
    12:00 -2°C° 0 mm 5 m/S 759 mmHg 71%
    13:00 -1°C° 0 mm 5 m/S 759 mmHg 70%
    14:00 -1°C° 0 mm 4 m/S 758 mmHg 72%
    15:00 -2°C° 0 mm 4 m/S 758 mmHg 74%
    16:00 -2°C° 0 mm 4 m/S 758 mmHg 76%
    17:00 -2°C° 0 mm 4 m/S 758 mmHg 77%
    18:00 -3°C° 0 mm 4 m/S 757 mmHg 79%
    19:00 -3°C° 0 mm 4 m/S 757 mmHg 81%
    20:00 -3°C° 0 mm 4 m/S 757 mmHg 81%
    21:00 -3°C° 0 mm 4 m/S 756 mmHg 80%
    22:00 -4°C° 0 mm 5 m/S 756 mmHg 79%
    23:00 -4°C° 0 mm 5 m/S 756 mmHg 78%

    21 Oktober, Montag

    Zeit Temperatur Niederschläge Wind Luftdruck Luftfeuchtigkeit
    00:00 -4°C° 0 mm 5 m/S 755 mmHg 76%
    01:00 -4°C° 0 mm 5 m/S 755 mmHg 74%
    02:00 -2°C° 0.1 mm 5 m/S 755 mmHg 78%
    03:00 -2°C° 0.1 mm 4 m/S 754 mmHg 81%
    04:00 -2°C° 0.1 mm 4 m/S 754 mmHg 84%
    05:00 -2°C° 0.9 mm 4 m/S 754 mmHg 88%
    06:00 -2°C° 0.9 mm 5 m/S 753 mmHg 91%
    07:00 -2°C° 0.9 mm 5 m/S 753 mmHg 94%
    08:00 -1°C° 1.1 mm 5 m/S 753 mmHg 95%
    09:00 -1°C° 1.1 mm 5 m/S 753 mmHg 96%
    10:00 -1°C° 1.1 mm 5 m/S 752 mmHg 97%
    11:00 -1°C° 0.5 mm 4 m/S 752 mmHg 96%
    12:00 0°C° 0.5 mm 4 m/S 752 mmHg 95%
    13:00 +1°C° 0.5 mm 3 m/S 752 mmHg 94%
    14:00 +1°C° 0.2 mm 3 m/S 752 mmHg 95%
    15:00 +1°C° 0.2 mm 3 m/S 752 mmHg 95%
    16:00 +1°C° 0.2 mm 3 m/S 752 mmHg 96%
    17:00 +2°C° 0.1 mm 2 m/S 753 mmHg 96%
    18:00 +2°C° 0.1 mm 2 m/S 753 mmHg 97%
    19:00 +2°C° 0.1 mm 2 m/S 753 mmHg 97%
    20:00 +2°C° 0.1 mm 2 m/S 753 mmHg 97%
    21:00 +2°C° 0.1 mm 2 m/S 754 mmHg 96%
    22:00 +3°C° 0.1 mm 1 m/S 754 mmHg 96%
    23:00 +3°C° 0 mm 1 m/S 754 mmHg 96%
    Mehr zeigen